Theta_e
323 323 325 322 321 323 325 325 325 326 329 339 340 339 338 347 348 348 348 348 348 347 345 345 347 348 349 346 348 350 351 351 350 349 345 344 344 348 346 346 348 347 349 348
320 321 322 323 323 322 323 324 325 325 327 339 340 341 337 341 344 346 346 346 347 347 347 346 346 346 350 348 348 349 350 349 351 351 351 349 345 343 344 347 349 347 349 350
320 321 323 325 325 324 323 323 324 325 327 343 341 342 342 338 337 341 344 345 345 346 346 347 347 346 348 348 348 348 348 349 350 350 351 351 350 345 346 349 347 346 350 347
320 323 324 324 326 324 321 324 325 326 327 334 339 341 343 340 335 337 341 343 344 344 345 345 347 347 346 346 347 348 348 348 349 349 351 352 351 348 346 349 347 347 345 348
323 324 324 325 326 325 324 324 325 327 326 327 331 339 339 341 341 337 337 342 342 344 344 344 345 346 346 346 346 347 347 348 348 349 349 351 352 349 347 344 350 350 348 349
323 325 324 324 325 325 325 322 323 326 326 328 329 338 338 340 341 338 339 340 342 343 344 344 344 345 346 346 346 346 347 348 348 348 349 349 349 349 347 344 351 351 349 350
326 325 323 325 323 323 322 319 320 323 325 327 326 335 338 338 340 339 341 341 340 342 343 343 344 345 345 346 346 346 346 347 348 348 349 350 348 348 343 346 351 348 347 347
325 326 325 323 322 324 320 319 320 322 324 326 325 333 336 336 340 341 342 342 341 340 342 343 343 344 345 346 346 346 346 347 348 349 349 350 350 347 343 347 350 345 345 347
319 323 324 326 324 323 322 319 319 318 321 323 325 328 328 333 336 340 342 342 341 340 340 342 343 344 344 345 346 346 347 347 348 349 349 350 351 347 342 348 347 346 349 348
320 320 321 324 325 326 322 320 320 315 320 322 322 327 330 329 334 336 340 342 342 342 341 341 341 342 344 344 345 346 347 347 348 348 349 350 351 349 342 348 346 350 350 349
321 319 321 323 323 325 325 322 318 318 319 321 321 324 323 326 328 334 341 343 343 343 343 342 341 341 342 343 346 346 347 348 348 348 349 350 350 351 343 342 345 349 351 351
319 319 320 321 322 325 325 324 319 322 319 319 322 324 327 325 326 332 337 341 343 344 343 344 344 342 343 345 346 345 346 347 348 348 349 350 350 351 347 341 342 347 349 351
322 318 321 320 320 320 323 324 323 314 316 321 322 322 322 322 326 338 338 339 339 340 340 342 345 343 344 345 346 345 346 346 347 349 350 350 350 351 350 341 340 341 346 348
316 321 321 324 324 322 322 324 323 322 323 322 322 322 323 322 326 328 330 331 340 339 340 340 345 345 345 345 345 346 346 345 346 349 351 350 350 349 348 343 338 336 340 346
314 316 320 320 322 324 325 325 325 323 324 323 324 319 319 320 320 323 327 334 339 339 339 341 345 345 346 346 346 346 346 346 345 348 349 350 349 348 347 345 341 337 336 340
312 316 317 323 325 324 325 325 326 325 325 323 321 321 319 321 322 327 329 329 336 339 339 337 342 345 347 347 347 347 347 346 347 348 348 348 349 349 348 346 343 339 336 336
313 314 316 320 323 324 325 326 326 326 325 324 322 322 321 322 325 328 331 334 336 336 338 339 343 343 346 347 347 347 347 347 348 348 348 348 347 347 347 345 345 342 337 336
315 316 315 320 321 325 324 325 325 324 326 325 324 323 323 324 326 328 330 337 336 334 333 341 343 345 347 347 347 347 348 348 348 349 348 348 348 346 344 343 342 343 343 342
315 317 319 321 324 325 329 327 326 324 325 327 324 325 325 328 328 336 332 329 331 333 334 335 340 345 345 347 347 347 348 349 350 350 348 348 347 347 345 342 339 344 348 348
317 317 320 322 325 327 326 328 328 328 330 339 335 335 334 330 327 329 337 335 333 329 333 333 334 342 347 344 345 347 347 347 347 347 346 346 347 347 346 343 345 346 348 349
327 325 322 322 327 322 324 327 333 333 332 339 338 337 335 336 334 339 337 336 334 334 332 332 330 333 336 343 346 346 345 346 345 345 346 350 348 348 346 347 348 349 349 352
327 329 329 327 328 327 329 333 330 330 340 339 340 338 338 343 347 347 342 335 332 333 331 334 335 331 335 335 337 338 347 344 344 346 348 350 350 349 350 349 350 351 353 354
327 327 330 328 333 326 335 338 344 345 346 346 346 346 345 348 350 347 348 349 348 341 339 337 332 334 331 331 334 337 343 344 347 348 348 349 350 350 350 350 352 354 354 355
325 327 329 329 331 330 327 330 337 341 343 345 346 346 348 351 352 353 351 349 347 349 352 346 339 335 333 332 332 336 333 336 347 350 350 350 349 350 351 352 352 353 355 356
325 326 329 330 329 329 326 327 334 334 339 341 341 343 344 347 349 352 353 353 352 354 358 360 360 356 356 350 333 334 338 347 352 353 352 354 353 357 358 358 359 358 358 354
323 327 328 332 327 325 325 327 330 329 330 334 337 338 340 344 345 347 349 350 350 350 351 353 352 350 356 360 361 353 353 356 357 355 354 357 361 363 364 362 360 355 350 351
Wind_Speed
11 6 13 10 8 6 5 6 8 7 4 7 13 14 21 38 35 34 36 37 38 43 42 37 34 34 44 39 37 37 38 33 28 27 25 31 30 28 22 18 15 15 15 13
4 12 7 8 7 10 10 12 18 8 6 4 9 16 19 26 33 41 37 38 40 41 43 41 40 37 43 42 40 38 37 33 30 28 25 22 19 25 26 20 18 17 16 14
12 8 13 9 11 10 14 16 15 10 7 3 6 2 3 9 10 28 37 44 44 47 47 49 47 46 43 45 44 41 37 34 32 30 26 24 19 22 24 22 20 16 14 13
9 13 12 19 14 12 11 15 16 10 2 5 7 4 7 12 8 17 33 36 41 45 47 51 53 54 51 48 44 42 39 37 36 33 30 30 29 27 26 25 22 18 17 16
10 18 20 16 16 16 13 9 10 11 7 4 10 2 7 8 15 12 21 39 41 46 49 52 56 58 57 53 50 47 44 43 40 36 35 34 33 27 21 25 21 19 20 20
15 14 15 15 13 17 14 6 7 5 8 9 14 12 6 8 14 17 22 36 44 44 50 55 57 57 59 57 54 51 49 46 43 40 36 37 36 30 26 28 25 21 21 21
8 17 5 12 8 9 10 7 6 6 8 11 9 8 11 15 17 24 26 35 43 48 49 52 53 54 57 60 58 56 52 50 47 43 38 35 33 32 28 30 27 24 24 24
13 12 13 10 14 19 9 13 9 9 4 5 6 8 13 15 23 40 45 41 41 44 50 55 59 62 62 61 60 59 56 52 50 46 41 35 31 31 32 28 30 28 25 24
7 14 4 19 10 15 10 8 13 7 3 1 5 6 8 11 13 22 34 29 39 47 50 57 58 62 64 62 62 60 58 54 51 48 42 38 34 32 35 29 29 30 26 24
12 4 11 21 10 21 12 8 3 1 14 16 5 5 10 7 12 11 22 34 43 51 57 56 56 63 61 63 63 61 58 56 52 49 44 40 34 33 35 32 35 31 27 25
20 11 11 5 14 18 10 11 4 5 8 11 4 16 8 11 9 9 18 41 47 51 56 50 56 59 63 61 61 61 60 57 54 51 46 42 37 35 35 36 38 38 31 29
13 14 15 26 11 14 20 13 11 8 8 8 17 24 5 9 9 10 20 35 45 51 47 54 53 53 54 57 58 60 60 59 56 51 47 44 39 35 36 38 40 41 39 35
9 5 10 8 9 8 8 14 19 6 4 16 9 6 6 7 6 12 10 19 14 28 34 45 46 47 56 57 59 59 60 60 56 53 48 45 43 40 37 38 41 43 43 43
13 6 14 19 16 6 6 16 16 19 14 13 21 8 5 4 4 7 22 31 35 35 32 34 44 52 57 59 60 59 60 59 57 54 50 47 45 42 39 38 42 43 45 44
8 6 4 15 16 21 14 11 21 23 23 22 21 10 10 10 9 12 26 24 30 27 21 26 35 42 55 57 57 59 59 59 58 57 52 50 46 42 41 40 42 44 45 47
6 5 8 7 13 24 24 21 22 22 23 20 7 7 10 15 21 14 23 23 22 35 32 26 45 50 60 60 60 59 59 57 58 58 55 49 47 47 46 44 43 43 45 45
4 4 8 6 6 20 20 30 15 13 11 15 14 9 10 8 10 11 17 18 27 30 38 40 49 52 56 64 60 59 59 58 58 57 56 52 49 48 48 46 45 45 44 44
9 8 3 6 8 20 13 19 20 9 7 10 12 13 12 16 29 30 18 20 20 15 7 19 39 50 56 59 58 56 57 58 58 56 56 53 51 49 47 47 46 45 43 42
18 11 4 4 4 6 4 6 13 9 12 8 9 8 8 12 11 5 9 15 16 20 25 12 21 39 46 54 57 56 55 56 56 56 55 55 52 49 49 47 46 43 40 39
21 19 10 6 4 6 5 4 11 7 2 3 9 9 8 9 5 4 8 8 8 19 23 21 19 27 44 46 52 56 56 56 56 56 55 55 56 52 47 46 44 40 36 34
2 3 10 12 8 9 4 4 4 9 7 3 6 9 8 6 6 8 4 2 3 6 12 17 25 30 28 30 44 47 50 55 50 50 55 58 58 55 48 44 42 40 37 36
4 4 3 2 6 7 28 20 8 7 7 18 15 13 21 19 17 16 11 6 5 6 8 12 17 27 38 35 36 39 52 47 49 54 53 54 57 57 50 47 44 42 40 36
7 5 6 6 5 11 31 15 13 23 25 12 19 18 22 22 20 15 14 14 10 7 10 14 18 21 35 40 42 42 44 45 49 53 50 52 48 50 50 48 48 44 40 39
7 4 3 5 2 12 29 30 21 23 27 22 22 22 24 28 24 21 16 11 5 3 3 13 20 25 31 37 45 47 45 45 52 50 47 48 47 46 47 47 46 43 42 38
3 6 4 2 5 14 22 29 17 21 24 24 23 26 24 25 24 22 20 16 10 2 1 4 13 19 20 28 45 47 48 50 52 47 44 43 44 44 45 44 42 42 38 31
2 2 5 3 6 3 7 22 21 27 25 24 25 26 22 21 21 18 18 14 11 6 2 3 5 11 10 8 7 40 39 41 43 45 47 45 43 41 42 42 36 30 18 15
Wind_Direction
211 194 223 215 200 210 229 254 252 271 338 142 177 168 167 173 180 184 185 186 190 191 193 202 204 206 202 205 205 206 204 205 204 202 209 218 223 217 219 222 228 247 236 248
245 228 201 199 209 211 233 247 264 312 260 174 212 174 169 173 186 185 185 189 193 196 195 198 207 202 204 206 207 205 209 206 206 209 216 213 216 216 214 223 231 230 234 248
207 225 203 202 224 219 225 231 251 235 313 130 132 50 157 197 182 191 192 192 194 195 197 200 205 206 205 205 207 209 211 213 212 213 219 218 215 208 209 217 218 225 234 247
229 223 207 211 224 215 233 227 246 254 258 263 172 230 214 212 223 188 194 197 197 199 201 200 205 207 210 212 216 216 218 216 219 222 217 217 218 216 217 221 225 222 232 238
217 191 214 211 212 216 243 225 242 235 234 192 250 198 247 179 226 216 195 198 200 201 202 203 206 210 211 213 215 218 219 218 222 223 225 222 225 232 237 226 215 232 232 235
218 224 202 216 214 218 229 237 262 231 225 241 235 222 237 206 206 217 201 203 201 202 203 208 210 212 212 214 215 216 216 219 222 223 227 229 232 232 234 217 217 217 220 232
226 231 218 207 196 218 197 173 243 252 231 236 218 215 225 210 205 204 206 202 201 201 203 207 208 207 211 213 214 216 217 217 219 222 226 230 233 232 229 215 212 220 224 230
214 243 213 209 202 215 202 198 205 213 215 256 208 216 236 224 210 204 212 207 196 200 204 207 211 213 213 214 215 216 217 217 218 220 224 227 231 229 221 214 213 223 225 235
176 233 261 218 207 194 229 190 202 194 201 304 230 256 276 227 226 214 214 204 196 200 204 210 211 215 213 214 218 218 217 218 220 220 222 224 227 226 219 213 215 223 225 229
221 285 219 238 217 239 196 176 223 240 222 238 255 238 231 213 233 214 205 203 197 199 206 210 208 213 215 218 221 220 221 218 220 221 221 223 227 227 221 215 215 222 221 226
208 200 236 199 221 219 208 209 213 191 201 229 240 251 191 232 231 210 214 200 198 197 206 207 209 213 219 217 217 220 221 220 218 221 220 221 223 225 223 217 217 222 224 224
274 216 230 231 214 209 224 214 186 212 233 236 229 245 128 204 240 233 203 207 203 202 199 207 212 209 208 210 214 220 221 222 222 220 220 220 221 223 224 222 218 221 225 229
324 217 230 291 276 235 206 224 216 129 128 221 210 260 201 206 289 170 187 203 217 213 202 206 205 202 211 211 214 219 222 222 224 220 220 220 220 223 225 226 225 222 224 229
354 248 246 234 224 182 192 217 212 210 217 222 231 217 277 276 256 272 259 253 224 207 213 215 206 206 213 217 216 220 221 223 223 223 219 220 222 223 225 227 228 228 227 227
11 275 272 273 265 210 201 195 214 216 218 210 231 199 220 241 237 241 277 251 209 194 191 192 210 206 211 214 214 219 222 221 223 223 222 221 223 226 227 226 229 231 231 231
330 285 334 282 255 229 217 220 226 219 219 227 195 209 185 221 233 238 240 259 227 189 202 224 216 213 214 216 217 218 219 222 222 223 225 223 223 225 227 229 229 231 233 233
270 313 352 277 283 215 231 218 203 213 213 208 211 196 194 203 199 214 248 225 224 218 210 212 209 209 208 213 219 218 220 222 222 223 226 225 225 226 228 228 230 233 233 234
238 270 248 276 305 208 217 211 220 192 217 211 224 209 197 208 223 230 243 242 203 161 159 217 203 209 214 217 218 222 219 219 222 222 224 227 227 227 228 229 230 232 235 236
215 223 261 257 268 266 186 175 179 170 240 204 196 213 217 194 121 75 234 205 216 234 242 227 224 214 216 210 217 218 217 219 221 223 225 227 227 227 227 227 230 232 234 237
219 205 199 263 310 254 210 175 135 124 227 310 146 149 147 138 116 233 140 158 199 224 239 232 227 213 216 213 218 217 219 220 222 226 230 230 228 228 228 229 228 229 232 236
63 116 200 253 258 275 298 207 126 122 216 86 100 126 128 106 137 134 148 127 162 201 225 238 230 221 226 219 221 219 224 225 230 233 233 227 228 228 229 230 229 229 228 230
118 148 133 279 262 259 341 317 157 169 127 124 112 117 105 109 105 97 118 148 198 228 246 247 255 236 223 216 218 228 227 229 231 231 228 229 227 228 226 228 229 227 227 226
168 208 165 156 241 319 314 315 59 124 121 114 116 122 120 110 106 105 96 97 114 174 218 232 247 246 242 244 230 227 225 227 230 227 227 228 228 227 228 226 225 223 224 225
172 169 156 55 106 346 357 3 24 84 101 110 123 128 124 116 112 109 110 109 102 88 224 234 230 236 247 243 234 230 230 226 223 219 222 223 222 218 222 221 224 221 215 214
176 134 117 346 350 315 350 6 34 62 84 93 101 109 112 118 111 112 111 110 113 104 354 265 250 241 242 249 241 233 228 219 209 207 209 209 210 207 203 204 203 208 208 216
343 153 147 99 286 276 358 30 56 61 71 80 86 85 89 101 103 101 94 95 100 112 144 269 353 353 294 264 302 217 211 205 201 194 196 202 199 197 197 191 195 212 219 199